Location: St Paul
(33.4390°N, 83.7350°W)
Time: 22:14:22
(UTC-04:00)

Meteor 1-16 Rocket - Pass Details

Date: 06 October 2017
Orbit: 790 x 908 km, 81.2° (Epoch: 17 October)

Event Time Altitude Azimuth Distance (km) Brightness Sun altitude
Rises 20:18:52 0° 175° (S) 3,322 7.2 -14.7°
Reaches altitude 10° 20:21:19 10° 171° (S) 2,380 6.4 -15.2°
Maximum altitude 20:26:32 56° 95° (E) 943 4.1 -16.3°
Drops below altitude 10° 20:31:42 10° 18° (NNE) 2,359 6.4 -17.4°
Sets 20:34:06 0° 14° (NNE) 3,290 7.2 -17.9°
